Vilnius, Lithuania

6:50 PM EEST on July 23, 2016 (GMT +0300)
Vilnius International

Weather History for EYVI - November, 2013

Change the Weather History Date:

Friday, November 1, 2013

  Actual Average Record
Temperature  
Mean Temperature 42 °F -  
Max Temperature 49 °F 38 °F 68 °F (1999)
Min Temperature 34 °F 30 °F 26 °F (2005)
Degree Days  
Heating Degree Days 24    
Moisture  
Dew Point 39 °F    
Average Humidity 90    
Maximum Humidity 100    
Minimum Humidity 64    
Precipitation  
Precipitation 0.00 in 0.07 in - ()
Sea Level Pressure  
Sea Level Pressure 30.07 in    
Wind  
Wind Speed 8 mph ()    
Max Wind Speed 13 mph    
Max Gust Speed -    
Visibility 2.8 miles    
Events Fog    
Averages and records for this station are not official NWS values.
T = Trace of Precipitation, MM = Missing Value Source: Averaged Metar Reports

Daily Weather History Graph

Daily Weather History Graph

Search for Another Location

Airport or City:

Trip Planner

Search our weather history database for the weather conditions in past years. The results will help you decide how hot, cold, wet, or windy it might be!

Date:

Astronomy

Nov. 01, 2013 Rise Set
Actual Time 7:21 AM EET 4:42 PM EET
Civil Twilight 6:43 AM EET 5:20 PM EET
Nautical Twilight 6:00 AM EET 6:03 PM EET
Astronomical Twilight 5:19 AM EET 6:44 PM EET
Moon 4:33 AM EET (11/1) 3:40 PM EET (11/1)
Length of Visible Light 10h 37m
Length of Day
9h 21m
Waning Crescent, 6% of the Moon is Illuminated
Nov 1
Waning Crescent
Nov 3
New
Nov 10
First Quarter
Nov 17
Full
Nov 25
Last Quarter

Hourly Weather History & Observations

Time (EET) Temp. Windchill Dew Point Humidity Pressure Visibility Wind Dir Wind Speed Gust Speed Precip Events Conditions
12:20 AM 37.4 °F 30.8 °F 37.4 °F 100% 30.24 in 0.1 mi SSW 9.2 mph - N/A Fog Fog
12:50 AM 37.4 °F 31.4 °F 37.4 °F 100% 30.24 in 0.5 mi SSW 8.1 mph - N/A Fog Fog
1:20 AM 37.4 °F 31.4 °F 37.4 °F 100% 30.24 in 0.4 mi SSW 8.1 mph - N/A Fog Fog
1:50 AM 39.2 °F 33.0 °F 39.2 °F 100% 30.21 in 0.5 mi SSW 9.2 mph - N/A Fog Fog
2:00 AM 38 °F - 37 °F 94% 30.26 in 2 mi SSW 6.7 mph - -   Mist
2:20 AM 37.4 °F 31.4 °F 37.4 °F 100% 30.21 in 0.7 mi SSW 8.1 mph - N/A   Overcast
2:50 AM 37.4 °F 30.8 °F 37.4 °F 100% 30.21 in 0.4 mi SSW 9.2 mph - N/A Fog Fog
3:20 AM 37.4 °F 32.8 °F 37.4 °F 100% 30.18 in 0.5 mi South 5.8 mph - N/A Fog Fog
3:50 AM 39.2 °F 33.6 °F 39.2 °F 100% 30.18 in 0.2 mi South 8.1 mph - N/A Fog Fog
4:20 AM 37.4 °F 32.1 °F 37.4 °F 100% 30.18 in 0.1 mi South 6.9 mph - N/A Fog Fog
4:50 AM 37.4 °F 32.1 °F 37.4 °F 100% 30.18 in 0.1 mi South 6.9 mph - N/A Fog Fog
5:00 AM 37 °F - 37 °F 99% 30.22 in 1 mi South 6.7 mph - - Fog Light Fog
5:20 AM 35.6 °F 30.7 °F 35.6 °F 100% 30.18 in 0.0 mi South 5.8 mph - N/A Fog Fog
5:50 AM 35.6 °F 29.9 °F 35.6 °F 100% 30.15 in 0.1 mi South 6.9 mph - N/A Fog Fog
6:20 AM 35.6 °F 29.2 °F 35.6 °F 100% 30.15 in 1.4 mi SSE 8.1 mph - N/A   Mostly Cloudy
6:50 AM 35.6 °F 29.2 °F 35.6 °F 100% 30.15 in 1.4 mi South 8.1 mph - N/A   Mostly Cloudy
7:20 AM 35.6 °F 28.6 °F 35.6 °F 100% 30.12 in 1.6 mi SSE 9.2 mph - N/A   Mostly Cloudy
7:50 AM 33.8 °F 27.7 °F 33.8 °F 100% 30.12 in 1.6 mi South 6.9 mph - N/A   Mostly Cloudy
8:00 AM 35 °F - 34 °F 96% 30.17 in 3 mi South 6.7 mph - -   Mist
8:20 AM 35.6 °F 29.9 °F 35.6 °F 100% 30.12 in 1.6 mi SSE 6.9 mph - N/A   Mist
8:50 AM 37.4 °F 32.1 °F 37.4 °F 100% 30.12 in 1.6 mi South 6.9 mph - N/A   Mist
9:20 AM 41.0 °F 35.8 °F 41.0 °F 100% 30.09 in 2.5 mi South 8.1 mph - N/A   Mist
9:50 AM 41.0 °F 34.3 °F 41.0 °F 100% 30.09 in 2.5 mi South 11.5 mph - N/A   Mist
10:20 AM 44.6 °F 39.2 °F 41.0 °F 87% 30.06 in 4.3 mi South 10.4 mph - N/A   Mostly Cloudy
10:50 AM 46.4 °F 41.9 °F 41.0 °F 81% 30.06 in 4.3 mi South 9.2 mph - N/A   Mostly Cloudy
11:00 AM 44 °F - 39 °F 76% 30.10 in 12 mi South 11.2 mph - -   Clear
11:20 AM 46.4 °F 41.1 °F 41.0 °F 81% 30.06 in 6.2 mi South 11.5 mph - N/A   Mostly Cloudy
11:50 AM 46.4 °F 41.5 °F 39.2 °F 76% 30.04 in 6.2 mi South 10.4 mph - N/A   Mostly Cloudy
12:20 PM 48.2 °F - 39.2 °F 71% 30.04 in - South 12.7 mph - N/A   Clear
12:50 PM 48.2 °F - 41.0 °F 76% 30.04 in - South 12.7 mph - N/A   Clear
1:20 PM 48.2 °F - 39.2 °F 71% 30.01 in - South 11.5 mph - N/A   Clear
1:50 PM 48.2 °F - 39.2 °F 71% 30.01 in - SSW 12.7 mph - N/A   Clear
2:00 PM 48 °F - 40 °F 64% 30.04 in 12 mi SSW 8.9 mph - -   Clear
2:20 PM 46.4 °F 41.5 °F 41.0 °F 81% 30.01 in - South 10.4 mph - N/A   Clear
2:50 PM 46.4 °F 41.5 °F 41.0 °F 81% 29.98 in - South 10.4 mph - N/A   Clear
3:20 PM 46.4 °F 41.9 °F 39.2 °F 76% 29.98 in - South 9.2 mph - N/A   Clear
3:50 PM 44.6 °F 39.7 °F 39.2 °F 81% 29.98 in - South 9.2 mph - N/A   Clear
4:20 PM 44.6 °F 39.2 °F 39.2 °F 81% 29.98 in 4.3 mi South 10.4 mph - N/A   Unknown
4:50 PM 42.8 °F 37.5 °F 39.2 °F 87% 29.98 in 4.3 mi South 9.2 mph - N/A   Unknown
5:00 PM 44 °F - 40 °F 79% 30.01 in 9 mi South 6.7 mph - -   Clear
5:20 PM 42.8 °F 37.0 °F 39.2 °F 87% 29.98 in 4.3 mi South 10.4 mph - N/A   Unknown
5:50 PM 42.8 °F 37.0 °F 41.0 °F 93% 29.98 in 2.5 mi South 10.4 mph - N/A   Mist
6:20 PM 42.8 °F 37.0 °F 41.0 °F 93% 29.98 in 2.5 mi South 10.4 mph - N/A   Mist
6:50 PM 42.8 °F 36.6 °F 41.0 °F 93% 29.98 in 2.5 mi South 11.5 mph - N/A   Mist
7:20 PM 42.8 °F 36.6 °F 41.0 °F 93% 29.95 in 2.5 mi SSW 11.5 mph - N/A   Mist
7:50 PM 42.8 °F 36.6 °F 41.0 °F 93% 29.95 in 2.5 mi SSW 11.5 mph - N/A   Mist
8:00 PM 42 °F - 40 °F 89% 30.00 in 6 mi SSW 6.7 mph - -   Mist
8:20 PM 41.0 °F 35.2 °F 39.2 °F 93% 29.95 in 2.5 mi SSW 9.2 mph - N/A   Mist
8:50 PM 41.0 °F 35.8 °F 39.2 °F 93% 29.95 in 2.5 mi SSW 8.1 mph - N/A   Mist
9:20 PM 41.0 °F 35.2 °F 39.2 °F 93% 29.95 in 2.5 mi SSW 9.2 mph - N/A   Mist
9:50 PM 41.0 °F 36.4 °F 39.2 °F 93% 29.95 in 2.5 mi South 6.9 mph - N/A   Mist
10:20 PM 41.0 °F 36.4 °F 39.2 °F 93% 29.95 in 2.5 mi SSW 6.9 mph - N/A   Mist
10:50 PM 41.0 °F 35.8 °F 39.2 °F 93% 29.95 in 2.5 mi South 8.1 mph - N/A   Overcast
11:00 PM 42 °F - 38 °F 80% 29.99 in 6 mi SSW 6.7 mph - -   Mostly Cloudy
11:20 PM 41.0 °F 35.8 °F 39.2 °F 93% 29.95 in 2.5 mi SSW 8.1 mph - N/A   Overcast
11:50 PM 42.8 °F 38.0 °F 39.2 °F 87% 29.95 in 2.5 mi SW 8.1 mph - N/A   Overcast